CW9386 Weather Reports


Display with metric or nautical units.
time (UTC)temp
F
wind
direction
speed
MPH
gust
MPH
rain 1hr
in
rain 24hr
in
rain mn
in
humidity
%
barometer
mb
20260507092719 57 339 2.0 6.0 0.00 0.00 0.00 22 1017.2
20260507091715 58 355 4.0 8.0 0.00 0.00 0.00 21 1017.2
20260507090712 58 17 3.0 5.0 0.00 0.00 0.00 21 1017.2
20260507085723 58 49 1.0 2.0 0.00 0.00 0.00 22 1017.1
20260507083722 59 44 3.0 5.0 0.00 0.00 0.00 20 1017.1
20260507082711 59 42 3.0 5.0 0.00 0.00 0.00 21 1017.2
20260507081722 59 80 2.0 4.0 0.00 0.00 0.00 22 1017.2
20260507080718 59 69 1.0 4.0 0.00 0.00 0.00 20 1017.1
20260507074724 56 65 3.0 5.0 0.00 0.00 0.00 25 1017.1
20260507073722 57 82 2.0 4.0 0.00 0.00 0.00 24 1017.2
20260507072714 57 105 1.0 3.0 0.00 0.00 0.00 24 1017.3
20260507071722 58 73 1.0 4.0 0.00 0.00 0.00 24 1017.4
20260507070720 57 49 2.0 5.0 0.00 0.00 0.00 23 1017.5
20260507065721 56 82 2.0 3.0 0.00 0.00 0.00 25 1017.5
20260507064715 56 78 1.0 2.0 0.00 0.00 0.00 26 1017.5
20260507063715 56 86 1.0 4.0 0.00 0.00 0.00 27 1017.5
20260507062709 56 92 3.0 5.0 0.00 0.00 0.00 26 1017.5
20260507061722 56 89 2.0 6.0 0.00 0.00 0.00 26 1017.5
20260507060717 57 136 1.0 4.0 0.00 0.00 0.00 25 1017.5
20260507055709 57 138 0.0 6.0 0.00 0.00 0.00 25 1017.6
20260507053722 58 86 2.0 3.0 0.00 0.00 0.00 23 1017.5
20260507052715 59 84 3.0 3.0 0.00 0.00 0.00 23 1017.3
20260507050707 59 134 1.0 6.0 0.00 0.00 0.00 21 1017.4
20260507045724 59 84 3.0 6.0 0.00 0.00 0.00 21 1017.3
20260507043716 63 126 2.0 3.0 0.00 0.00 0.00 17 1016.9
20260507042711 63 186 2.0 5.0 0.00 0.00 0.00 16 1016.8
20260507041709 63 167 2.0 4.0 0.00 0.00 0.00 16 1016.7
20260507040706 63 169 2.0 4.0 0.00 0.00 0.00 16 1016.6
20260507034717 63 150 3.0 6.0 0.00 0.00 0.00 16 1016.2
20260507033710 63 138 3.0 5.0 0.00 0.00 0.00 17 1016.2
20260507032706 64 53 4.0 6.0 0.00 0.00 0.00 16 1016.1
20260507031723 67 16 2.0 3.0 0.00 0.00 0.00 14 1015.9
20260507025718 68 27 4.0 8.0 0.00 0.00 0.00 12 1015.6
20260507024711 69 28 4.0 6.0 0.00 0.00 0.00 12 1015.4
20260507023712 69 30 4.0 9.0 0.00 0.00 0.00 12 1015.3
20260507021721 70 30 8.0 15.0 0.00 0.00 0.00 11 1015.0
20260507020719 71 27 9.0 15.0 0.00 0.00 0.00 11 1014.9
20260507013706 72 271 8.0 16.0 0.00 0.00 0.00 10 1014.5
20260507012721 73 252 10.0 17.0 0.00 0.00 0.00 10 1014.5
20260507011715 73 232 11.0 15.0 0.00 0.00 0.00 10 1014.4
20260507005703 74 228 14.0 18.0 0.00 0.00 0.00 10 1014.2
20260507004716 74 280 9.0 19.0 0.00 0.00 0.00 11 1014.1
20260507003705 74 241 13.0 21.0 0.00 0.00 0.00 10 1014.0
20260507002720 75 237 11.0 18.0 0.00 0.00 0.00 11 1013.9
20260507000704 75 209 13.0 18.0 0.00 0.00 0.00 11 1013.9
20260506235719 75 232 12.0 22.0 0.00 0.00 0.00 10 1013.8
20260506234708 75 254 8.0 20.0 0.00 0.00 0.00 10 1013.7
20260506233705 76 198 12.0 20.0 0.00 0.00 0.00 10 1013.7
20260506232704 76 273 10.0 17.0 0.00 0.00 0.00 11 1013.7
20260506231700 75 259 13.0 22.0 0.00 0.00 0.00 10 1013.8
20260506230713 75 241 12.0 24.0 0.00 0.00 0.00 10 1013.9
20260506222658 75 254 13.0 20.0 0.00 0.00 0.00 12 1013.9
20260506221712 76 242 10.0 21.0 0.00 0.00 0.00 12 1013.8
20260506220707 76 251 10.0 19.0 0.00 0.00 0.00 13 1013.9
20260506215659 75 221 13.0 17.0 0.00 0.00 0.00 13 1014.0
20260506214708 75 248 9.0 19.0 0.00 0.00 0.00 13 1014.1
20260506213708 75 244 10.0 17.0 0.00 0.00 0.00 14 1014.1
20260506211713 75 174 5.0 16.0 0.00 0.00 0.00 16 1014.2
20260506205658 74 253 11.0 20.0 0.00 0.00 0.00 17 1014.5
20260506201704 73 274 5.0 17.0 0.00 0.00 0.00 18 1014.7
20260506195712 73 237 7.0 16.0 0.00 0.00 0.00 19 1015.0
20260506194709 72 262 10.0 14.0 0.00 0.00 0.00 19 1015.2
20260506193703 72 220 10.0 18.0 0.00 0.00 0.00 20 1015.3
20260506190704 71 285 12.0 16.0 0.00 0.00 0.00 21 1015.7
20260506185657 70 205 9.0 17.0 0.00 0.00 0.00 24 1015.7
20260506184706 70 255 11.0 16.0 0.00 0.00 0.00 22 1015.9
20260506183658 69 132 11.0 17.0 0.00 0.00 0.00 25 1016.0
20260506181710 69 251 3.0 18.0 0.00 0.00 0.00 25 1016.2
20260506180708 69 201 3.0 13.0 0.00 0.00 0.00 25 1016.4
20260506175706 69 210 7.0 18.0 0.00 0.00 0.00 24 1016.5
20260506174658 69 204 10.0 18.0 0.00 0.00 0.00 24 1016.4
20260506173703 69 187 9.0 15.0 0.00 0.00 0.00 25 1016.5
20260506171657 67 161 9.0 15.0 0.00 0.00 0.00 26 1016.5
20260506170706 67 211 8.0 16.0 0.00 0.00 0.00 27 1016.5
20260506165702 67 239 8.0 16.0 0.00 0.00 0.00 27 1016.7
20260506164709 66 234 9.0 17.0 0.00 0.00 0.00 28 1016.5
20260506163706 65 229 13.0 16.0 0.00 0.00 0.00 29 1016.6
20260506162658 65 265 4.0 14.0 0.00 0.00 0.00 28 1016.6
20260506161653 65 248 7.0 17.0 0.00 0.00 0.00 29 1016.5
20260506160710 65 253 10.0 14.0 0.00 0.00 0.00 31 1016.5
20260506154658 64 227 4.0 11.0 0.00 0.00 0.00 34 1016.4
20260506153652 63 236 8.0 12.0 0.00 0.00 0.00 34 1016.5
20260506152701 63 227 6.0 12.0 0.00 0.00 0.00 34 1016.5
20260506151650 63 237 6.0 13.0 0.00 0.00 0.00 35 1016.4
20260506150704 63 261 6.0 10.0 0.00 0.00 0.00 35 1016.4
20260506145659 62 300 4.0 10.0 0.00 0.00 0.00 35 1016.4
20260506144658 62 282 5.0 11.0 0.00 0.00 0.00 35 1016.4
20260506143654 62 240 2.0 9.0 0.00 0.00 0.00 36 1016.4
20260506141657 62 234 2.0 5.0 0.00 0.00 0.00 37 1016.4
20260506140655 61 275 2.0 6.0 0.00 0.00 0.00 37 1016.2
20260506135651 61 269 2.0 3.0 0.00 0.00 0.00 40 1016.1
20260506134656 60 145 0.0 1.0 0.00 0.00 0.00 43 1016.1
20260506133650 59 101 1.0 2.0 0.00 0.00 0.00 46 1016.0
20260506132658 57 108 0.0 1.0 0.00 0.00 0.00 50 1016.0
20260506131652 55 109 0.0 1.0 0.00 0.00 0.00 52 1015.8
20260506130652 53 109 0.0 1.0 0.00 0.00 0.00 53 1015.8
20260506125649 53 113 0.0 2.0 0.00 0.00 0.00 53 1015.6
20260506124703 52 53 1.0 3.0 0.00 0.00 0.00 54 1015.5
20260506123701 51 105 2.0 3.0 0.00 0.00 0.00 56 1015.5
20260506115659 50 101 0.0 2.0 0.00 0.00 0.00 58 1015.1
20260506114656 50 90 2.0 3.0 0.00 0.00 0.00 57 1015.0
20260506113704 50 80 1.0 3.0 0.00 0.00 0.00 57 1014.9
20260506112703 50 130 3.0 5.0 0.00 0.00 0.00 56 1014.8
20260506111700 51 13 0.0 2.0 0.00 0.00 0.00 55 1014.7
20260506110657 52 16 0.0 1.0 0.00 0.00 0.00 55 1014.7
20260506105704 52 17 0.0 0.0 0.00 0.00 0.00 54 1014.7
20260506104658 52 18 0.0 2.0 0.00 0.00 0.00 53 1014.6
20260506103657 53 18 0.0 3.0 0.00 0.00 0.00 53 1014.5
20260506102653 52 16 3.0 4.0 0.00 0.00 0.00 53 1014.3
20260506101648 52 17 3.0 4.0 0.00 0.00 0.00 54 1014.2
20260506095704 52 132 1.0 4.0 0.00 0.00 0.00 55 1014.8
20260506094655 52 148 1.0 4.0 0.00 0.00 0.00 55 1014.7